Theta_e
317 319 325 327 323 321 325 329 324 342 342 347 345 343 344 344 345 345 339 339 353 346 343 340 340 339 338 336 335 331 329 327 326 327 329 331 333 330 328 327 324 324 326 327 325 327 330 333 339
319 326 327 326 321 323 323 326 321 333 339 353 352 348 348 347 340 341 339 340 351 354 345 342 339 339 337 335 334 332 329 327 324 325 327 328 330 329 329 330 327 325 325 325 325 326 331 332 335
319 326 326 320 320 327 325 322 321 325 343 348 346 346 354 353 347 346 346 349 354 354 347 344 340 336 335 334 333 331 329 328 326 324 323 325 326 327 327 330 330 328 326 325 328 331 332 331 332
323 327 330 325 329 328 328 321 321 322 331 336 330 327 332 353 349 356 353 345 342 349 346 346 342 338 335 335 335 333 331 330 329 327 325 324 323 323 325 328 331 331 329 328 327 329 331 334 337
324 323 328 331 332 327 322 322 322 319 322 324 326 323 324 324 326 349 351 340 332 349 352 345 344 340 340 339 339 338 336 334 332 330 328 327 325 324 323 324 327 330 331 330 328 327 327 330 334
322 319 317 322 327 326 322 322 322 320 323 323 323 323 322 323 323 330 344 347 346 344 350 348 345 343 342 340 340 341 341 342 341 339 338 333 329 327 325 325 325 325 327 329 330 328 326 327 330
320 313 317 319 319 319 322 322 319 319 321 321 323 320 322 323 322 322 336 351 352 352 350 347 345 345 344 344 343 344 344 345 344 342 340 338 335 332 329 327 325 325 326 327 327 328 327 325 325
320 312 316 316 316 321 320 321 321 322 321 323 322 320 320 321 322 320 325 343 349 352 352 347 346 346 346 345 344 345 347 349 346 342 343 343 342 339 335 332 329 327 325 324 325 325 326 326 325
321 313 312 318 319 318 319 319 321 321 321 319 319 319 319 320 321 322 322 337 343 351 345 351 344 348 339 341 344 339 342 352 346 341 338 343 343 342 339 336 334 334 332 330 333 331 327 325 324
315 311 315 318 318 318 318 319 320 319 320 318 319 319 319 319 319 321 324 324 343 344 327 325 325 326 328 334 343 348 350 351 348 343 338 340 346 343 341 338 336 341 344 344 343 343 342 339 336
315 313 317 318 319 319 318 319 319 318 317 319 319 319 320 320 321 320 326 327 327 328 327 326 326 325 324 324 325 331 351 347 344 345 345 336 330 346 342 339 342 342 339 339 343 342 344 344 343
318 318 319 319 319 319 318 319 318 319 319 319 319 319 320 321 322 322 322 326 327 326 326 326 325 324 322 320 320 323 324 327 338 338 341 344 336 345 342 340 340 341 342 344 339 343 342 345 345
318 318 319 319 319 319 319 318 318 319 319 319 319 320 320 323 324 325 324 324 324 324 324 324 322 318 319 319 320 320 320 322 321 323 336 345 343 341 340 341 341 335 339 343 343 342 342 343 342
319 318 318 319 319 319 319 318 319 320 319 320 320 320 320 323 324 325 325 325 325 325 324 320 318 316 318 319 319 319 319 320 319 319 326 334 341 343 335 343 340 336 339 337 338 343 341 341 342
318 317 315 317 318 318 319 317 318 320 319 320 320 320 323 325 325 325 325 325 325 324 323 321 321 320 318 318 318 318 320 319 320 318 317 325 332 337 336 339 342 340 341 335 335 338 343 343 343
318 315 314 314 317 319 318 315 317 321 320 319 320 319 325 325 325 325 325 325 324 324 323 323 322 322 322 321 320 317 316 321 321 321 320 317 322 326 330 339 341 344 338 335 339 340 341 334 337
313 316 317 316 316 317 316 316 319 320 320 320 320 320 325 325 325 325 325 324 324 324 323 323 323 323 323 322 321 320 316 315 318 324 322 322 322 323 325 337 342 345 341 337 330 332 339 334 333
316 318 317 318 319 317 317 317 316 320 320 321 319 324 325 325 325 325 324 325 324 322 322 324 325 323 322 321 321 320 319 318 316 324 332 329 325 326 325 332 343 343 341 337 332 331 335 333 330
319 318 318 320 318 318 316 316 316 319 320 321 320 325 325 325 324 324 325 324 322 325 327 325 323 323 322 322 320 319 318 317 316 318 329 333 334 332 331 330 338 338 340 337 335 334 334 334 333
317 317 316 317 318 317 316 317 316 318 319 319 320 322 324 324 321 320 321 322 326 327 327 326 324 323 321 321 321 319 318 318 317 322 327 332 334 335 335 332 333 338 338 337 336 333 329 329 332
317 317 318 319 318 317 318 316 318 319 320 320 320 320 319 320 320 319 319 319 320 320 319 319 318 318 318 318 319 319 317 319 321 323 327 330 333 333 334 334 330 333 334 333 332 329 324 329 329
318 318 319 319 317 318 317 316 317 317 319 319 318 318 318 318 318 319 319 318 318 318 317 317 317 316 316 316 317 316 316 319 322 324 326 327 330 330 329 332 333 333 331 330 332 333 327 328 328
318 318 318 319 317 316 316 313 317 316 318 318 319 319 318 318 318 317 317 317 317 318 318 317 316 316 316 316 316 317 315 315 320 322 325 324 326 327 326 327 327 328 330 329 329 325 322 322 322
319 316 314 314 313 315 317 315 313 317 318 318 319 318 318 318 317 317 317 316 316 316 315 315 315 316 316 315 316 316 316 315 315 317 319 322 324 327 328 326 326 327 326 325 325 325 323 322 325
315 313 314 318 315 317 314 315 315 316 316 317 318 318 317 316 315 314 313 312 312 313 315 315 314 316 316 316 315 315 315 314 314 313 313 319 319 318 324 327 326 327 325 325 322 321 322 326 327
317 314 314 319 317 316 314 316 316 316 318 318 319 317 317 315 314 313 313 313 314 314 314 314 316 316 316 314 316 315 315 314 314 313 312 315 317 317 315 315 321 324 324 321 321 322 324 325 324
318 316 314 315 315 314 314 316 314 315 316 317 317 317 316 315 314 313 313 314 314 314 315 315 315 316 314 313 315 315 314 313 313 313 313 312 315 316 316 315 317 318 322 321 322 322 323 322 320
318 316 316 313 318 318 316 316 314 314 317 315 316 317 316 316 315 314 314 315 315 315 315 314 313 313 313 312 312 312 311 310 309 312 311 313 313 313 312 315 316 317 319 319 320 320 320 320 320
315 313 313 310 312 314 315 313 311 315 315 315 316 317 317 315 314 314 314 315 314 314 313 313 312 312 312 312 311 310 310 309 309 309 311 314 315 314 314 314 315 317 318 318 319 318 318 318 317
315 316 312 312 314 313 312 314 312 314 314 316 316 315 315 314 315 314 315 313 311 311 311 310 309 309 310 308 308 307 306 308 309 309 311 315 315 313 313 314 314 313 314 314 313 313 313 312 314
Wind_Speed
14 13 13 3 4 5 4 5 2 14 6 11 24 7 5 8 5 4 15 14 9 14 13 11 10 8 7 7 6 6 7 7 7 9 9 7 6 5 5 5 7 10 11 11 11 11 11 11 10
9 13 4 2 5 4 5 5 8 8 16 30 24 21 7 1 6 7 14 8 8 7 10 10 10 9 8 7 5 6 6 6 6 6 6 7 5 4 4 5 5 5 8 10 11 11 10 9 10
8 10 4 4 3 1 1 4 3 10 24 24 11 9 4 1 3 7 0 9 2 3 9 8 9 8 6 6 6 5 5 4 4 5 5 6 6 5 6 6 5 5 6 8 9 9 10 9 10
9 4 4 4 3 5 3 4 3 9 15 22 17 8 14 8 8 3 6 21 18 3 11 11 10 8 5 4 4 4 4 3 3 3 3 3 3 4 5 7 8 7 7 7 8 9 10 9 10
7 2 4 3 3 5 3 6 24 10 8 20 23 6 10 21 15 2 7 10 4 13 14 17 10 6 3 3 4 3 3 3 3 2 1 2 2 4 5 6 7 9 9 9 10 10 11 11 11
4 2 4 2 4 6 4 5 25 17 24 23 20 12 8 17 23 13 1 2 14 8 13 14 8 4 3 3 4 4 2 2 3 5 5 5 6 5 6 8 9 9 10 11 11 12 13 13 14
3 4 3 1 5 7 2 2 9 12 15 10 18 5 8 15 19 23 7 2 4 8 9 8 7 6 6 4 3 2 1 0 1 4 6 7 8 8 9 9 10 11 11 12 12 13 13 14 15
2 4 4 3 6 3 5 3 11 11 8 20 10 4 5 12 11 25 19 7 5 3 5 6 6 4 5 5 5 3 3 2 5 9 8 9 10 10 11 12 12 11 11 12 12 13 14 15 16
5 3 1 3 2 6 5 5 10 13 17 30 27 21 16 12 8 22 25 24 11 14 17 11 4 3 8 4 8 9 8 7 11 12 14 15 14 13 14 14 13 12 11 10 10 12 14 16 17
5 4 4 2 1 3 7 7 6 8 14 16 19 18 16 12 10 15 28 26 26 19 13 11 10 8 12 11 10 9 9 9 16 18 18 16 15 15 16 16 15 14 11 8 9 8 9 12 15
5 6 4 0 5 9 4 9 5 7 4 9 15 11 10 9 11 9 25 26 21 18 14 10 11 13 13 11 10 10 7 15 18 20 24 22 18 15 14 13 14 16 12 12 10 11 11 10 10
4 8 6 2 3 4 2 2 4 4 7 14 12 12 9 9 13 10 7 16 17 15 16 21 22 21 17 14 15 15 12 16 17 17 20 18 19 19 19 18 17 16 15 14 14 14 15 15 15
4 2 9 5 3 2 0 2 3 9 14 10 8 7 13 18 17 13 9 5 4 9 15 21 27 24 21 19 17 17 18 19 19 21 18 17 20 22 22 22 22 21 19 19 20 18 16 16 16
3 4 6 6 4 6 3 2 2 10 8 9 7 5 14 18 18 16 9 4 2 8 15 17 18 20 23 25 25 24 23 22 21 20 20 19 23 26 27 28 27 25 24 21 23 22 21 20 19
3 3 5 4 7 4 3 8 3 13 7 15 11 8 21 20 15 11 7 7 7 13 17 21 22 22 23 27 30 29 27 25 23 22 22 23 22 26 28 32 33 29 28 25 24 24 23 21 21
3 5 3 6 7 3 6 7 5 14 9 17 13 8 22 18 13 11 8 11 14 17 21 21 22 21 22 24 26 28 29 29 26 26 25 26 27 27 28 28 36 33 28 24 27 30 29 24 23
7 2 3 7 3 3 5 4 10 20 7 8 11 14 24 21 15 12 12 13 14 16 18 16 15 17 21 26 30 28 28 30 33 27 26 28 30 29 27 28 31 35 26 24 25 25 27 21 22
4 2 4 4 7 6 6 6 8 23 22 23 11 24 23 19 17 12 12 12 13 15 12 10 14 17 20 26 29 31 33 33 34 34 28 24 28 30 28 25 30 32 31 28 23 18 15 17 19
3 4 4 3 3 2 4 6 10 22 23 24 4 28 23 22 16 15 14 14 14 10 9 15 18 21 23 25 31 35 37 37 33 31 29 26 23 25 26 24 30 34 34 28 26 18 15 17 19
7 6 6 5 6 5 9 8 11 22 13 22 16 21 24 23 24 25 23 23 24 17 15 15 18 23 28 32 32 32 35 35 35 31 30 30 29 22 21 24 22 31 33 31 24 24 12 22 18
4 7 3 2 7 6 4 8 16 14 34 36 33 34 30 28 31 26 24 22 19 20 19 22 26 28 29 31 31 32 29 26 28 29 30 28 24 21 19 14 23 25 29 30 19 14 14 15 17
4 2 2 5 5 2 4 3 6 9 15 21 25 29 27 26 25 22 18 17 18 20 23 23 19 22 24 25 23 21 24 24 24 24 25 25 22 16 12 11 11 20 12 10 14 12 8 13 21
1 4 3 3 2 4 7 5 5 5 8 7 12 19 20 18 16 15 13 13 13 15 17 18 20 25 23 19 25 24 25 22 21 23 23 22 21 15 13 13 10 13 17 18 17 17 15 10 21
1 7 8 5 3 3 2 3 4 1 4 2 5 14 15 14 14 13 15 19 21 21 20 23 22 19 20 23 23 27 30 29 25 22 23 25 22 15 11 7 6 3 3 4 13 14 11 11 28
8 7 4 4 5 4 6 3 6 6 4 8 11 14 13 11 12 13 17 21 22 21 19 17 19 15 18 20 23 26 29 31 29 27 26 21 22 21 15 9 10 6 4 6 9 11 13 27 26
2 6 5 3 3 5 6 4 4 5 14 16 18 14 11 11 14 18 20 19 18 15 16 15 15 14 16 16 17 22 25 29 30 29 25 22 21 21 17 16 8 2 7 2 13 19 22 27 27
3 1 5 4 1 2 3 2 5 6 6 12 12 10 10 10 11 9 14 15 16 16 17 14 14 12 18 19 14 16 22 25 27 28 27 24 23 21 19 16 12 11 12 16 24 27 28 27 27
3 2 3 3 1 3 5 2 5 2 6 6 9 11 8 5 8 13 12 13 12 14 12 12 16 18 21 26 25 25 28 31 30 28 27 26 22 22 21 21 16 11 11 17 19 19 20 20 19
6 5 4 3 5 4 2 5 6 3 6 7 6 6 3 9 11 14 13 11 11 13 17 18 23 26 27 29 31 33 35 36 30 27 26 23 20 20 19 17 13 12 11 10 11 12 11 13 12
5 2 4 4 6 3 4 6 6 2 10 13 7 3 6 8 8 10 8 11 15 18 22 27 37 38 32 34 34 34 32 31 25 22 19 20 19 19 16 9 9 8 6 7 7 6 5 6 7
Wind_Direction
336 343 318 355 51 55 339 327 33 95 91 152 158 153 175 133 171 208 161 191 133 155 161 161 157 160 145 134 132 123 121 124 128 135 138 136 131 130 140 152 163 167 172 178 181 187 196 200 201
346 345 3 48 76 43 305 288 21 122 119 121 113 115 101 331 171 121 141 180 136 151 162 163 166 171 151 139 134 122 118 121 124 127 136 136 138 139 148 156 169 181 185 184 183 187 203 215 224
335 347 30 83 100 204 279 306 18 92 114 109 102 82 100 99 132 144 59 165 280 184 161 168 181 171 154 141 129 118 115 115 117 125 141 148 155 163 165 174 187 198 203 200 196 201 208 218 226
352 355 79 84 249 270 226 288 358 88 88 112 99 75 67 69 38 184 202 71 41 215 182 176 184 186 159 142 131 117 102 101 106 120 147 169 170 189 188 189 195 207 219 226 224 226 231 233 235
340 11 37 49 309 257 334 45 78 70 74 87 94 104 74 54 54 152 159 57 30 230 195 192 178 163 162 149 132 109 85 60 26 6 321 250 215 218 223 218 218 221 226 228 234 241 242 245 249
350 50 50 28 5 298 302 89 89 85 107 91 71 75 61 48 47 47 174 2 91 133 179 186 170 145 180 184 158 140 119 56 2 326 317 298 281 254 245 239 233 236 240 242 243 243 245 247 248
139 89 198 225 224 267 250 10 99 99 84 116 105 87 44 52 44 44 52 285 131 148 181 151 153 180 204 211 202 173 151 84 300 283 294 295 284 281 275 262 254 249 248 247 249 255 259 261 260
252 86 16 308 320 336 342 51 75 80 99 126 120 104 74 46 41 62 71 108 90 145 132 159 172 225 329 306 239 249 255 265 303 293 280 279 282 275 270 272 269 263 264 265 264 263 265 265 265
259 58 56 290 30 277 351 77 54 61 84 80 84 84 76 74 91 71 84 102 124 97 76 82 46 30 332 283 306 282 268 274 312 326 315 288 276 276 267 263 263 265 255 261 276 280 276 275 275
132 111 250 228 249 340 1 78 58 79 85 75 76 69 75 72 80 79 84 92 102 103 92 69 54 39 24 19 342 315 298 286 297 299 300 286 280 281 273 264 257 251 253 276 277 284 286 277 286
163 162 209 183 62 50 7 28 29 119 57 117 100 82 81 73 105 102 83 87 89 82 77 47 12 352 336 333 336 343 289 282 282 289 292 292 278 273 270 266 253 246 247 259 272 283 279 288 296
131 128 167 150 86 84 54 321 335 59 144 133 119 121 121 125 113 113 101 78 64 53 27 8 359 344 335 325 319 310 291 282 276 285 281 278 274 279 270 266 259 248 255 256 266 268 280 275 278
86 171 134 148 159 143 171 284 271 293 165 160 141 137 145 138 130 130 149 190 274 317 336 332 331 347 355 346 330 319 309 290 281 278 280 270 266 269 277 267 253 259 260 247 255 258 260 267 270
93 99 167 186 211 238 226 233 291 282 198 189 178 186 154 155 148 135 137 124 315 351 3 2 352 346 353 354 348 334 316 308 293 282 273 271 267 269 278 268 255 253 258 256 262 259 263 265 265
67 27 341 234 208 221 156 327 238 327 223 207 208 203 150 146 152 153 130 98 49 31 15 9 12 8 360 353 354 348 335 317 305 292 277 269 270 265 270 263 257 251 247 258 257 259 261 261 267
360 49 337 280 199 223 124 271 307 353 192 202 227 145 145 146 144 127 102 70 44 32 15 15 4 359 360 359 352 349 343 337 320 301 288 276 272 274 274 271 252 245 250 261 260 262 261 266 272
11 263 277 0 62 75 73 278 313 330 334 244 261 175 150 138 129 110 81 54 43 27 22 12 357 354 355 349 346 350 351 345 340 324 300 279 277 277 271 268 257 247 248 262 259 260 262 265 271
269 319 316 53 343 57 21 286 278 319 326 320 325 160 146 134 122 97 72 63 51 37 22 10 3 360 359 347 339 337 338 337 339 333 330 312 280 274 273 265 256 249 248 256 251 270 269 268 273
266 30 11 125 315 140 345 295 302 320 327 309 220 158 141 122 109 88 75 62 50 51 53 28 9 8 359 353 344 342 342 341 335 330 336 318 302 279 276 270 253 258 248 250 248 243 266 265 273
71 73 354 309 330 51 359 329 347 347 17 28 101 112 113 100 90 72 74 74 77 86 60 37 10 351 345 342 345 346 340 339 336 334 340 339 327 304 298 272 268 252 252 253 249 250 247 278 256
59 95 43 288 334 18 24 9 21 14 54 56 61 85 80 84 82 68 60 59 52 39 19 358 341 331 331 332 329 335 338 336 341 345 351 351 337 333 328 297 263 254 257 258 270 265 253 257 275
38 218 83 357 38 285 52 271 14 358 45 50 54 70 71 77 75 65 48 27 10 359 342 337 348 351 349 344 335 344 349 358 5 2 3 353 353 344 338 321 287 245 228 217 211 214 194 233 282
204 22 4 255 278 65 338 76 285 342 27 18 46 68 65 61 59 50 32 14 344 326 336 337 342 344 347 2 4 352 1 352 358 9 10 2 354 2 11 14 2 299 261 230 224 242 230 261 294
144 22 25 27 91 63 235 143 267 218 202 167 74 75 68 53 35 18 6 349 332 330 333 335 333 351 347 350 356 348 348 352 353 352 354 357 360 354 351 339 312 302 280 286 259 236 238 242 273
65 52 357 4 9 229 271 30 224 203 192 160 132 94 74 51 37 24 3 351 344 336 339 339 346 352 354 347 350 347 343 346 344 352 351 344 341 356 339 358 335 248 222 174 218 221 253 273 264
102 130 149 251 225 251 308 233 248 157 145 142 133 121 99 70 42 23 16 11 4 355 347 355 345 343 346 347 350 346 341 339 338 345 347 337 331 327 336 322 305 243 201 137 272 283 257 268 272
313 351 186 149 315 83 237 104 325 151 158 140 136 124 90 65 32 29 13 21 20 15 355 351 356 336 335 341 339 328 330 332 333 336 338 331 332 320 319 323 304 248 224 214 232 252 262 272 275
93 247 357 8 272 276 299 237 237 229 204 138 152 137 123 86 33 16 7 6 358 354 2 340 332 324 319 319 321 322 322 322 323 322 325 325 323 325 322 310 310 294 257 246 257 273 272 278 284
356 338 52 118 141 182 253 263 224 296 202 149 142 137 106 29 13 5 1 351 352 342 333 329 325 321 318 318 318 317 314 317 317 312 314 317 317 326 327 326 317 312 293 279 275 279 282 290 292
182 64 108 101 294 238 164 270 310 114 106 118 109 68 31 9 347 354 354 343 337 336 330 330 329 320 316 319 320 319 318 316 312 309 309 312 319 328 330 329 326 322 321 329 320 316 349 350 346